CW6054 Weather Reports


Display with metric or nautical units.
time (UTC)temp
F
wind
direction
speed
MPH
gust
MPH
rain 1hr
in
rain 24hr
in
rain mn
in
humidity
%
barometer
mb
20260507061111 44 223 0.0 0.0 0.00 0.95 0.00 93 1012.0
20260507060111 44 223 0.0 0.0 0.00 0.95 0.00 94 1011.9
20260507053110 44 223 0.0 0.0 0.00 0.99 0.00 94 1011.7
20260507051111 44 225 0.0 0.0 0.00 0.99 0.00 94 1011.4
20260507045111 44 197 0.0 0.0 0.00 1.07 0.00 94 1011.1
20260507041110 44 167 0.0 1.0 0.00 1.07 0.00 94 1010.7
20260507040110 44 185 0.0 0.0 0.00 1.07 0.00 94 1010.6
20260507035110 44 184 0.0 0.0 0.00 1.18 0.00 94 1010.6
20260507033110 45 178 0.0 0.0 0.00 1.18 0.00 95 1010.5
20260507032110 45 188 0.0 0.0 0.00 1.18 0.00 95 1010.4
20260507031109 45 180 0.0 0.0 0.00 1.18 0.00 95 1010.3
20260507030110 45 180 0.0 0.0 0.00 1.18 0.00 95 1010.2
20260507024109 45 180 0.0 0.0 0.00 1.20 0.00 95 1010.1
20260507023109 45 181 0.0 1.0 0.00 1.20 0.00 94 1009.9
20260507022109 45 180 0.0 0.0 0.00 1.20 0.00 95 1009.9
20260507021108 45 180 0.0 0.0 0.00 1.20 0.00 95 1009.9
20260507020108 45 180 0.0 0.0 0.00 1.20 0.00 95 1009.8
20260507015108 46 180 0.0 0.0 0.00 1.20 0.00 95 1009.8
20260507014109 46 180 0.0 0.0 0.00 1.20 0.00 95 1009.6
20260507013109 46 180 0.0 0.0 0.00 1.20 0.00 95 1009.6
20260507005113 46 181 0.0 0.0 0.00 1.20 0.00 95 1009.4
20260507004113 46 181 0.0 0.0 0.00 1.20 0.00 95 1009.4
20260507002113 46 181 0.0 0.0 0.00 1.20 0.00 95 1009.2
20260507000113 46 181 0.0 0.0 0.00 1.20 0.00 95 1009.1
20260506234112 46 191 0.0 0.0 0.00 1.20 0.00 95 1009.1
20260506232112 45 195 0.0 0.0 0.00 1.20 0.00 95 1009.0
20260506231112 45 195 0.0 0.0 0.00 1.20 0.00 95 1009.0
20260506230112 45 195 0.0 0.0 0.00 1.20 0.00 95 1008.9
20260506223111 45 195 0.0 0.0 0.00 1.20 0.00 95 1008.9
20260506222111 45 195 0.0 0.0 0.00 1.20 0.00 95 1008.9
20260506221111 45 195 0.0 0.0 0.00 1.20 0.00 94 1008.9
20260506220111 45 195 0.0 0.0 0.00 1.20 0.00 94 1008.9
20260506215111 45 193 0.0 0.0 0.01 1.20 1.20 94 1008.8
20260506212111 45 182 0.0 0.0 0.01 1.20 1.20 94 1008.7
20260506205110 45 206 0.0 0.0 0.01 1.20 1.20 94 1008.4
20260506204110 45 213 0.0 0.0 0.01 1.20 1.20 94 1008.4
20260506202110 45 227 0.0 0.0 0.02 1.20 1.20 94 1008.3
20260506201110 45 171 0.0 0.0 0.03 1.20 1.20 94 1008.2
20260506200110 46 168 0.0 0.0 0.05 1.20 1.20 94 1008.1
20260506195110 46 213 0.0 0.0 0.06 1.19 1.19 94 1008.0
20260506194110 46 213 0.0 0.0 0.08 1.19 1.19 94 1008.0
20260506192109 46 213 0.0 0.0 0.11 1.17 1.17 94 1007.8
20260506190110 46 213 0.0 0.0 0.13 1.15 1.15 94 1007.7
20260506181109 46 169 0.0 0.0 0.06 1.04 1.04 94 1007.3
20260506180109 46 183 0.0 0.0 0.05 1.02 1.02 94 1007.1
20260506172112 47 204 0.0 0.0 0.02 0.98 0.98 94 1006.9
20260506171112 47 204 0.0 0.0 0.03 0.98 0.98 94 1006.9
20260506165112 47 225 0.0 0.0 0.06 0.98 0.98 94 1006.7
20260506164112 47 177 0.0 0.0 0.09 0.98 0.98 94 1006.7
20260506163112 47 162 0.0 0.0 0.11 0.97 0.97 94 1006.7
20260506160111 47 162 0.0 0.0 0.13 0.94 0.94 94 1006.7
20260506154111 47 162 0.0 0.0 0.13 0.89 0.89 94 1006.8
20260506151111 47 153 0.0 0.0 0.11 0.82 0.82 94 1006.8
20260506144111 47 180 0.0 0.0 0.13 0.76 0.76 94 1006.9
20260506143111 47 213 0.0 1.0 0.13 0.74 0.74 93 1006.8
20260506134110 47 173 0.0 0.0 0.10 0.64 0.64 93 1006.9
20260506133110 47 182 0.0 0.0 0.09 0.61 0.61 93 1006.8
20260506131110 47 175 0.0 0.0 0.07 0.57 0.57 93 1006.7
20260506130110 47 180 0.0 0.0 0.08 0.56 0.56 93 1006.6
20260506123110 47 148 0.0 1.0 0.06 0.52 0.52 93 1006.5
20260506122109 47 180 0.0 0.0 0.06 0.51 0.51 93 1006.4
20260506121109 47 169 0.0 0.0 0.05 0.50 0.50 93 1006.4
20260506115109 47 204 0.0 2.0 0.03 0.47 0.47 93 1006.3
20260506114109 47 161 0.0 0.0 0.02 0.46 0.46 93 1006.3
20260506113109 47 168 0.0 0.0 0.02 0.46 0.46 93 1006.2
20260506112108 47 195 0.0 0.0 0.02 0.46 0.46 93 1006.3
20260506103113 46 150 0.0 0.0 0.04 0.43 0.43 94 1006.4
20260506102113 46 153 0.0 0.0 0.05 0.43 0.43 93 1006.3
20260506100113 46 159 0.0 0.0 0.06 0.42 0.42 93 1006.4
20260506091113 46 192 0.0 0.0 0.06 0.37 0.37 94 1006.2
20260506085112 45 174 0.0 0.0 0.07 0.35 0.35 93 1006.1
20260506084112 45 182 0.0 0.0 0.06 0.34 0.34 94 1006.0
20260506083112 45 148 0.0 0.0 0.06 0.33 0.33 93 1006.0
20260506082112 44 177 0.0 1.0 0.06 0.32 0.32 93 1005.9
20260506080112 44 209 0.0 1.0 0.05 0.30 0.30 93 1005.7
20260506073112 44 205 0.0 0.0 0.03 0.28 0.27 93 1005.6
20260506072112 43 157 0.0 0.0 0.03 0.28 0.26 93 1005.6
20260506071111 43 184 0.0 0.0 0.03 0.27 0.25 93 1005.5
20260506070111 43 203 0.0 0.0 0.04 0.27 0.25 93 1005.4